#timestamp,LO_Frequency,Hit,StdDev 
1641459615.1,286046996.8,N
1641459616.0,286046996.8,N
1641459635.8,286046997.0,N
1641459655.7,286046998.0,N
1641459675.5,286046995.5,Y
1641459695.3,286046994.9,P
1641459715.2,286046997.3,N
1641459735.0,286046997.4,N
1641459735.9,286046997.4,N
1641459755.8,286046996.8,N
1641459775.6,286046999.0,N
1641459795.4,286046996.8,N
1641459815.3,286046998.2,N
1641459835.1,286046998.4,N
1641459855.8,286047000.3,N
1641459875.7,286046998.7,N
1641459895.5,286046999.1,N
1641459915.4,286046999.2,N
1641459935.2,286046999.3,N
1641459955.0,286047000.7,N
1641459955.9,286047000.7,N
1641459975.8,286046998.6,N
1641459995.6,286047001.1,N
1641460015.4,286047000.2,N
1641460035.3,286046998.1,N
1641460055.1,286046998.5,N
1641460075.9,286046999.2,N
1641460095.7,286046999.4,N
1641460115.5,286046999.3,N
1641460135.4,286046996.5,N
1641460155.2,286046999.4,N
1641460175.0,286046996.7,N
1641460175.9,286046996.7,N
1641460195.8,286046996.7,N
1641460215.6,286046997.2,N
1641460235.5,286046996.5,N
1641460255.3,286046999.3,N
1641460275.1,286046999.3,N
1641460295.9,286047000.7,N
1641460315.7,286046999.1,N
1641460335.5,286046998.5,N
1641460355.4,286047000.4,N
1641460375.2,286047000.9,N
1641460395.1,286046999.0,N
1641460396.0,286046999.0,N
1641460415.8,286046999.2,N
1641460435.6,286046999.6,N
1641460455.5,286046999.5,N
1641460475.3,286046997.5,N
1641460495.1,286046995.3,Y
1641460515.9,286046998.0,P
1641460535.7,286046995.0,P
1641460555.6,286046995.2,N
1641460575.4,286046995.6,N
1641460595.2,286046995.6,N
1641460615.1,286046995.6,N
1641460616.0,286046995.6,Y
1641460635.8,286047000.8,P
1641460655.7,286046999.0,N
1641460675.5,286046997.3,N
1641460695.3,286046996.7,N
1641460715.2,286046994.9,Y
1641460735.9,286047000.0,P
1641460755.7,286047002.8,N
1641460775.6,286047002.2,N
1641460795.4,286047002.5,N
1641460815.3,286047002.7,N
1641460835.1,286047001.7,N
1641460836.0,286047001.7,N
1641460855.8,286047004.4,N
1641460875.7,286046999.8,N
1641460895.5,286047000.5,N
1641460915.3,286047000.7,N
1641460935.2,286046998.3,N
1641460955.0,286046999.3,N
1641460955.9,286046999.3,N
1641460975.8,286046998.7,N
1641460995.6,286046999.9,N
1641461015.4,286046999.9,N
1641461035.3,286047001.2,N
1641461055.1,286047000.0,N
1641461075.9,286047000.4,N
1641461095.7,286047000.8,N
1641461115.5,286046999.9,N
1641461135.4,286046999.7,N
1641461155.2,286047002.8,N
1641461175.0,286047000.1,N
1641461175.9,286047000.1,N
1641461195.8,286047000.1,N
1641461215.6,286047000.5,N
1641461235.5,286047000.8,N
1641461255.3,286046998.1,N
1641461275.1,286046998.1,N
1641461295.9,286046998.9,N
1641461315.7,286046998.3,N
1641461335.5,286046998.3,N
1641461355.4,286046999.0,N
1641461375.2,286046998.1,N
1641461395.1,286047000.4,N
1641461396.0,286047000.4,N
1641461415.8,286047000.1,N
1641461435.6,286047001.1,N
1641461455.5,286046999.9,N
1641461475.3,286047001.0,N
1641461495.1,286046998.1,N
1641461515.9,286046998.7,N
1641461535.7,286046999.1,N
1641461555.6,286046996.6,Y
1641461575.4,286046996.9,P
1641461595.2,286046996.9,N
1641461615.1,286046999.1,N
1641461616.0,286046999.1,N
1641461635.8,286046997.5,N
1641461655.7,286046996.7,N
1641461675.5,286046999.2,N
1641461695.3,286046999.2,N
1641461715.2,286046996.5,Y
1641461735.0,286046998.1,P
1641461735.9,286046998.1,P
1641461755.7,286046998.2,P
1641461775.6,286047001.1,Y
1641461795.4,286047002.3,P
1641461815.3,286047001.6,N
1641461835.1,286047000.9,N
1641461836.0,286047000.9,N
1641461855.8,286047000.0,N
1641461875.7,286047001.0,N
1641461895.5,286047001.0,N
1641461915.3,286046999.3,N
1641461935.2,286047000.9,N
1641461955.0,286047000.8,N
1641461955.9,286047000.8,N
1641461975.8,286047000.3,N
1641461995.6,286047002.5,N
1641462015.4,286047002.1,N
1641462035.3,286047000.9,N
1641462055.1,286047000.9,N
1641462075.8,286047000.0,N
1641462095.7,286047000.9,N
1641462115.5,286047000.3,N
1641462135.4,286047000.3,N
1641462155.2,286047000.5,N
1641462175.0,286047002.4,N
1641462175.9,286047002.4,N
1641462195.8,286047002.3,N
1641462215.6,286047001.6,N
1641462235.4,286047002.2,N
1641462255.3,286047002.6,N
1641462275.1,286047001.7,N
1641462295.9,286047001.6,N
1641462315.7,286047001.3,N
1641462335.5,286047002.4,N
1641462355.4,286047002.6,N
1641462375.2,286047003.7,Y
1641462395.1,286047001.5,P
1641462396.0,286047001.5,P
1641462415.8,286047003.2,P
1641462435.6,286047003.0,Y
1641462455.5,286047002.3,P
1641462475.3,286047002.5,P
1641462495.1,286047002.6,P
1641462515.9,286047002.5,Y
1641462535.7,286046998.2,P
1641462555.6,286046998.3,N
1641462575.4,286047000.9,N
1641462595.2,286047000.6,N
1641462615.1,286047001.1,N
1641462616.0,286047001.1,N
1641462635.8,286046998.8,N
1641462655.7,286046998.1,N
1641462675.5,286046998.8,N
1641462695.3,286046998.7,N
1641462715.2,286046998.4,N
1641462735.0,286047001.2,N
1641462735.9,286047001.2,N
1641462755.8,286046999.4,N
1641462775.6,286046999.5,N
1641462795.4,286046996.6,N
1641462815.3,286046998.9,N
1641462835.1,286046998.8,N
1641462855.8,286046996.9,N
1641462875.7,286046999.4,N
1641462895.5,286046999.6,N
1641462915.4,286046996.7,N
1641462935.2,286046997.8,N
1641462955.0,286046996.9,N
1641462955.9,286046996.9,N
1641462975.8,286046999.2,N
1641462995.6,286046996.8,N
1641463015.4,286046997.1,N
1641463035.3,286046998.9,N
1641463055.1,286046996.6,N
1641463075.9,286046999.2,N
1641463095.7,286046998.9,N
1641463115.5,286046998.2,N
1641463135.4,286046998.3,N
1641463155.2,286047000.9,N
1641463175.0,286046998.1,N
1641463176.0,286046998.1,N
1641463195.8,286047001.0,N
